Location: Kings Park
(40.8862°N, 73.2573°W)
Time: 05:02:28
(UTC+00:00)

Cosmos 1553 Rocket - Pass Details

Date: 29 October 2020
Orbit: 940 x 1009 km, 82.9° (Epoch: 29 November)

Event Time Altitude Azimuth Distance (km) Brightness Sun altitude
Rises 22:53:12 0° 182° (S) 3,713 7.2 -12.1°
Reaches altitude 10° 22:55:44 10° 181° (S) 2,761 6.5 -12.6°
Maximum altitude 23:02:04 80° 95° (E) 1,008 4.0 -13.8°
Drops below altitude 10° 23:08:21 10° 10° (N) 2,735 6.2 -14.9°
Sets 23:10:51 0° 9° (N) 3,677 6.9 -15.4°
